STARLINK-31958, 59924

Orbit data source: Space-Track

STARLINK-31958, 59924 is a payload satellite owned by SpaceX/Seattle (US) in LEO that was launched on Sat, 01 Jun 2024 UTC via an FALCON 9 launch vehicle from the Air Force Eastern Test Range (AFETR). Payload-class satellites include a variety of spacecraft equipped with specific instruments for various scientific and technological missions. These include communications satellites like Starlink; space stations such as the ISS; scientific satellites like the Hubble; Earth observation satellites from companies like Planet Labs, Umbra, and HawkEye 360; GPS; miniature CubeSats for education and research; and military/defense satellites.

Loading next visibility...
Identifier
59924, 2024-106C
Orbit
LEO
Last TLE update
23 hours ago
Origin
Manufacturer
SpaceX/Seattle
Mission
Operational spacecraft
Bus & Motor
STARLINK V2M, Unknown motor
Mass
730 kg wet, ~700 kg dry
Launch date (UTC)
2024-06-01 (1 year ago)
Launch vehicle
FALCON 9
Launch site
Air Force Eastern Test Range (AFETR)
Object type
Payload
Rocket body
Debris
Shape & HBR
Unknown
Radar Cross Section
Large (>1 m²)

Expand to show TLE details & history

TLE from 23 hours ago
0 STARLINK-31958
1 59924U 24106C   25191.45507685  .00001965  00000-0  54300-4 0  9997
2 59924  43.0003 247.7817 0001246 279.1935  80.8780 15.40700655 63627
Epoch: 2025-07-10T10:55Z
TLE epoch observation values (Epoch: 2025-07-10T10:55:18.639Z)
Latitude
-0.00007°
Longitude
155.33285°
Altitude
443.68 km
Speed
7.648 km/s
True Right ascension
16h 31m 07s
True Declination
0° 00' 00"
Sunlit
Object was in full shadow at epoch
Visualization orbit readout
Latitude
-26.10357°
Longitude
118.26859°
Altitude
449.872 km
Speed
7.643 km/s
Apparent Right ascension
12h 26m 18s
Apparent Declination
-35° 44' 44"
Sunlit
Object is in daylight
Visualization observer readout
Local Sidereal Time
22:23:03
Azimuth
269.892° W
Elevation
-65.435°
Doppler factor
1
Orbital elements
Apogee altitude
446.847 km
Perigee altitude
445.146 km
Semi-major axis
6,824.133 km
Eccentricity
0.00012
Inclination
43.0003°
RAAN
247.7817°
Arg. of periapsis
279.1935°
True anomaly
Unknown
Mean anomaly
80.878°
Eccentric anomaly
Unknown
Mean motion
3.8501 °/min
Orbital period
93.5 mins
BSTAR
0.0000543
Loading maneuver chart data...
Loading SW <> Apogee altitude chart data...
Loading historical data...
Loading historical data...
Loading historical data...
Loading historical data...
Loading historical data...
Loading historical data...
Loading historical data...

STARLINK-31958 Visibility forecast

Observer location: undefined°, undefined°

Span
Click to sort rows by Start time (UTC) header in descending order
Start Az.
Max El. time (UTC)
Max El. Az.
Max El.
End time (UTC)
End Az.
6 mins2025-07-11 10:38:14.489Z289.943° WNW2025-07-11 10:41:14.489Z350.548° N39.421°2025-07-11 10:44:14.489Z86.452° E
5 mins2025-07-11 12:17:14.489Z275.423° WNW2025-07-11 12:19:14.489Z224.926° SW36.458°2025-07-11 12:22:14.489Z133.637° SE
4 mins2025-07-12 06:43:14.489Z204.682° SW2025-07-12 06:44:14.489Z174.853° S31.815°2025-07-12 06:47:14.489Z86.234° E
4 mins2025-07-12 08:21:14.489Z278.753° WNW2025-07-12 08:22:14.489Z307.378° NW38.896°2025-07-12 08:25:14.489Z66.95° ENE
5 mins2025-07-12 09:59:14.489Z298.824° NW2025-07-12 10:01:14.489Z20.857° NNE38.254°2025-07-12 10:04:14.489Z84.06° E
|